This is the latest recevied weather packets stored in our database for station/object CE3MXM-13. If no packets are shown the sender has not sent any weather packets the latest 10 day(s).
| Time | Temp. | Humidity | Pressure | Rain* | Wind** | Luminosity | Snow |
|---|---|---|---|---|---|---|---|
| 1777238831 | 18.33° C | 43% | 1014 hPa | - | - | - | - |
| 1777238530 | 18.89° C | 41% | 1014 hPa | - | - | - | - |
| 1777238231 | 18.89° C | 40% | 1013.9 hPa | - | - | - | - |
| 1777237930 | 19.44° C | 39% | 1013.8 hPa | - | - | - | - |
| 1777237631 | 20° C | 39% | 1013.8 hPa | - | - | - | - |
| 1777237330 | 20° C | 39% | 1013.8 hPa | - | - | - | - |
| 1777237030 | 20.56° C | 37% | 1013.8 hPa | - | - | - | - |
| 1777236730 | 20° C | 37% | 1013.8 hPa | - | - | - | - |
| 1777236430 | 20.56° C | 35% | 1013.7 hPa | - | - | - | - |
| 1777236130 | 20.56° C | 34% | 1013.7 hPa | - | - | - | - |
| 1777235830 | 20.56° C | 37% | 1013.5 hPa | - | - | - | - |
| 1777235530 | 20.56° C | 38% | 1013.7 hPa | - | - | - | - |
| 1777235229 | 20.56° C | 34% | 1013.7 hPa | - | - | - | - |
| 1777234929 | 21.11° C | 33% | 1013.6 hPa | - | - | - | - |
| 1777234630 | 21.11° C | 34% | 1013.6 hPa | - | - | - | - |
| 1777234329 | 21.11° C | 33% | 1013.5 hPa | - | - | - | - |
| 1777234029 | 21.11° C | 34% | 1013.4 hPa | - | - | - | - |
| 1777233729 | 21.11° C | 34% | 1013.4 hPa | - | - | - | - |
| 1777233429 | 21.11° C | 33% | 1013.7 hPa | - | - | - | - |
| 1777233129 | 21.11° C | 34% | 1013.6 hPa | - | - | - | - |
| 1777232829 | 21.11° C | 33% | 1013.8 hPa | - | - | - | - |
| 1777232529 | 21.11° C | 33% | 1013.8 hPa | - | - | - | - |
| 1777232229 | 21.11° C | 33% | 1013.8 hPa | - | - | - | - |
| 1777231929 | 21.67° C | 32% | 1013.7 hPa | - | - | - | - |
| 1777231628 | 21.67° C | 33% | 1013.8 hPa | - | - | - | - |
* Rain since midnight (hover to see other rain measurements)
** Current wind speed in m/s (hover to see current wind gust speed)